STARLINK-1475, 45739

Orbit data source: Space-Track

STARLINK-1475, 45739 is a payload satellite owned by SpaceX/Seattle (US) in LEO that was launched on Sat, 13 Jun 2020 UTC via an FALCON 9 launch vehicle from the Air Force Eastern Test Range (AFETR). Payload-class satellites include a variety of spacecraft equipped with specific instruments for various scientific and technological missions. These include communications satellites like Starlink; space stations such as the ISS; scientific satellites like the Hubble; Earth observation satellites from companies like Planet Labs, Umbra, and HawkEye 360; GPS; miniature CubeSats for education and research; and military/defense satellites.

Loading next visibility...
Identifier
45739, 2020-038K
Orbit
LEO
Country
Flag of USUS
Related business
Manufacturer
SpaceX/Seattle
Mission
Partially operational Commercial Communications
Bus & Motor
STARLINK, Unknown motor
Mass
260 kg wet, ~248 kg dry
Launch date (UTC)
2020-06-13 (5 years ago)
Launch vehicle
FALCON 9
Launch site
Air Force Eastern Test Range (AFETR)
Object type
Payload
Rocket body
Debris
Shape & HBR
Box + 1 Pan, 10.1 m
Radar Cross Section
13.562 m², Large (>1 m²)

Expand to show TLE details & history
Last TLE update: 1 hour ago

TLE from 1 hour ago
0 STARLINK-1475
1 45739U 20038K   25299.58335647  .00286892  00000-0  19047-2 0  9997
2 45739  53.0497 345.2101 0005828 344.7333  39.1923 15.74081637  5952
Epoch: 2025-10-26T14:00Z
TLE epoch observation values (Epoch: 2025-10-26T14:00:01.999Z)
Latitude
18.98099°
Longitude
114.91226°
Altitude
344.599 km
Speed
7.707 km/s
True Right ascension
00h 00m 28s
True Declination
18° 52' 08"
Sunlit
Object was in full shadow at epoch
Visualization orbit readout
Latitude
Unknown
Longitude
Unknown
Altitude
Unknown
Speed
Unknown
Apparent Right ascension
Unknown
Apparent Declination
Unknown
Sunlit
N/A
Visualization observer readout
Local Sidereal Time
10:46:00
Azimuth
Unknown
Elevation
Unknown
Doppler factor
Unknown
Orbital elements
Apogee altitude
351.445 km
Perigee altitude
343.605 km
Semi-major axis
6,725.662 km
Eccentricity
0.00058
Inclination
53.0497°
RAAN
345.2101°
Arg. of periapsis
344.7333°
True anomaly
39.23453°
Mean anomaly
39.1923°
Eccentric anomaly
39.21341°
Mean motion
3.93496 °/min
Orbital period
91.49 mins
BSTAR
0.0019047
Loading maneuver chart data...
Computing Atmospheric mass density...

Documentation

Showing up to 5 results
|